Time,TemperatureF,DewpointF,PressureIn,WindDirection,WindDirectionDegrees,WindSpeedMPH,WindSpeedGustMPH,Humidity,HourlyPrecipIn,Conditions,Clouds,dailyrainin,SoftwareType,DateUTC
2013-01-11 00:04:00,71.0,69.0,30.21,SSE,153,3.0,9.0,93,0.00,,,0.00,,2013-01-11 05:04:00,
2013-01-11 00:13:00,71.0,69.0,30.21,SE,130,2.0,9.0,93,0.00,,,0.00,,2013-01-11 05:13:00,
2013-01-11 00:22:00,71.0,69.0,30.21,SE,130,2.0,9.0,93,0.00,,,0.00,,2013-01-11 05:22:00,
2013-01-11 00:33:00,71.0,69.0,30.20,SE,142,6.0,10.0,94,0.00,,,0.00,,2013-01-11 05:33:00,
2013-01-11 00:43:00,71.0,69.0,30.20,SE,142,6.0,10.0,94,0.00,,,0.00,,2013-01-11 05:43:00,
2013-01-11 00:52:00,71.0,69.0,30.20,SE,136,4.0,10.0,94,0.00,,,0.00,,2013-01-11 05:52:00,
2013-01-11 01:03:00,71.0,69.0,30.19,SE,141,4.0,8.0,94,0.00,,,0.00,,2013-01-11 06:03:00,
2013-01-11 01:12:00,71.0,69.0,30.19,SE,141,4.0,8.0,94,0.00,,,0.00,,2013-01-11 06:12:00,
2013-01-11 01:22:00,71.0,69.0,30.19,SSE,165,3.0,8.0,94,0.00,,,0.00,,2013-01-11 06:22:00,
2013-01-11 01:32:00,71.0,69.0,30.19,SE,142,3.0,8.0,95,0.00,,,0.00,,2013-01-11 06:32:00,
2013-01-11 01:42:00,71.0,69.0,30.19,SE,142,3.0,8.0,95,0.00,,,0.00,,2013-01-11 06:42:00,
2013-01-11 01:52:00,71.0,69.0,30.18,SSE,153,5.0,10.0,95,0.00,,,0.00,,2013-01-11 06:52:00,
2013-01-11 02:02:00,71.0,69.0,30.17,South,173,2.0,7.0,95,0.00,,,0.00,,2013-01-11 07:02:00,
2013-01-11 02:12:00,71.0,69.0,30.17,South,180,0.0,7.0,94,0.00,,,0.00,,2013-01-11 07:12:00,
2013-01-11 02:22:00,71.0,69.0,30.17,South,180,0.0,7.0,94,0.00,,,0.00,,2013-01-11 07:22:00,
2013-01-11 02:32:00,71.0,69.0,30.17,South,188,5.0,6.0,95,0.00,,,0.00,,2013-01-11 07:32:00,
2013-01-11 02:42:00,71.0,69.0,30.17,South,171,0.0,6.0,94,0.00,,,0.00,,2013-01-11 07:42:00,
2013-01-11 02:52:00,71.0,69.0,30.17,South,171,0.0,6.0,94,0.00,,,0.00,,2013-01-11 07:52:00,
2013-01-11 03:02:00,71.0,69.0,30.16,South,184,0.0,5.0,95,0.00,,,0.00,,2013-01-11 08:02:00,
2013-01-11 03:12:00,71.0,69.0,30.16,South,175,0.0,5.0,95,0.00,,,0.00,,2013-01-11 08:12:00,
2013-01-11 03:22:00,71.0,69.0,30.16,South,175,0.0,5.0,95,0.00,,,0.00,,2013-01-11 08:22:00,
2013-01-11 03:32:00,70.0,68.0,30.16,South,171,0.0,2.0,95,0.00,,,0.00,,2013-01-11 08:32:00,
2013-01-11 03:42:00,70.0,68.0,30.16,South,171,0.0,2.0,95,0.00,,,0.00,,2013-01-11 08:42:00,
2013-01-11 03:52:00,70.0,68.0,30.16,South,171,0.0,2.0,95,0.00,,,0.00,,2013-01-11 08:52:00,
2013-01-11 04:02:00,70.0,69.0,30.16,South,171,0.0,1.0,96,0.00,,,0.00,,2013-01-11 09:02:00,
2013-01-11 04:12:00,70.0,69.0,30.16,South,171,0.0,1.0,96,0.00,,,0.00,,2013-01-11 09:12:00,
2013-01-11 04:23:00,70.0,69.0,30.15,South,171,0.0,1.0,96,0.00,,,0.00,,2013-01-11 09:23:00,
2013-01-11 04:32:00,70.0,69.0,30.15,South,171,0.0,2.0,96,0.00,,,0.00,,2013-01-11 09:32:00,
2013-01-11 04:42:00,70.0,69.0,30.15,South,171,0.0,2.0,96,0.00,,,0.00,,2013-01-11 09:42:00,
2013-01-11 04:52:00,69.0,68.0,30.15,South,171,0.0,2.0,97,0.00,,,0.00,,2013-01-11 09:52:00,
2013-01-11 05:02:00,70.0,69.0,30.14,South,171,0.0,2.0,97,0.00,,,0.00,,2013-01-11 10:02:00,
2013-01-11 05:12:00,70.0,69.0,30.14,South,171,0.0,2.0,97,0.00,,,0.00,,2013-01-11 10:12:00,
2013-01-11 05:22:00,70.0,69.0,30.14,South,171,3.0,3.0,97,0.00,,,0.00,,2013-01-11 10:22:00,
2013-01-11 05:32:00,70.0,69.0,30.14,South,171,0.0,3.0,97,0.00,,,0.00,,2013-01-11 10:32:00,
2013-01-11 05:42:00,70.0,69.0,30.14,South,171,0.0,3.0,97,0.00,,,0.00,,2013-01-11 10:42:00,
2013-01-11 05:52:00,70.0,69.0,30.14,South,171,0.0,3.0,96,0.00,,,0.00,,2013-01-11 10:52:00,
2013-01-11 06:03:00,69.0,68.0,30.14,South,171,0.0,1.0,96,0.00,,,0.00,,2013-01-11 11:03:00,
2013-01-11 06:12:00,69.0,68.0,30.14,South,171,0.0,1.0,96,0.00,,,0.00,,2013-01-11 11:12:00,
2013-01-11 06:22:00,69.0,68.0,30.14,South,171,0.0,1.0,97,0.00,,,0.00,,2013-01-11 11:22:00,
2013-01-11 06:33:00,69.0,68.0,30.14,South,171,0.0,0.0,97,0.00,,,0.00,,2013-01-11 11:33:00,
2013-01-11 06:42:00,69.0,68.0,30.14,South,171,0.0,0.0,97,0.00,,,0.00,,2013-01-11 11:42:00,
2013-01-11 06:53:00,68.0,67.0,30.14,South,171,0.0,0.0,97,0.00,,,0.00,,2013-01-11 11:53:00,
2013-01-11 07:03:00,68.0,67.0,30.14,South,171,0.0,0.0,97,0.00,,,0.00,,2013-01-11 12:03:00,
2013-01-11 07:12:00,68.0,67.0,30.14,South,171,0.0,0.0,97,0.00,,,0.00,,2013-01-11 12:12:00,
2013-01-11 07:22:00,68.0,67.0,30.15,South,171,0.0,0.0,97,0.00,,,0.00,,2013-01-11 12:22:00,
2013-01-11 07:33:00,69.0,68.0,30.16,South,171,0.0,0.0,98,0.00,,,0.00,,2013-01-11 12:33:00,
2013-01-11 07:42:00,69.0,68.0,30.16,South,171,0.0,0.0,98,0.00,,,0.00,,2013-01-11 12:42:00,
2013-01-11 07:52:00,69.0,68.0,30.16,South,171,0.0,0.0,98,0.00,,,0.00,,2013-01-11 12:52:00,
2013-01-11 08:03:00,70.0,69.0,30.17,South,171,0.0,0.0,98,0.00,,,0.00,,2013-01-11 13:03:00,
2013-01-11 08:13:00,70.0,69.0,30.17,South,171,0.0,0.0,98,0.00,,,0.00,,2013-01-11 13:13:00,
2013-01-11 08:22:00,70.0,69.0,30.17,South,171,0.0,0.0,98,0.00,,,0.00,,2013-01-11 13:22:00,
2013-01-11 08:33:00,69.0,68.0,30.17,South,171,0.0,0.0,98,0.00,,,0.00,,2013-01-11 13:33:00,
2013-01-11 08:42:00,69.0,68.0,30.17,South,171,0.0,0.0,98,0.00,,,0.00,,2013-01-11 13:42:00,
2013-01-11 08:52:00,69.0,68.0,30.17,South,171,0.0,0.0,98,0.00,,,0.00,,2013-01-11 13:52:00,
2013-01-11 09:03:00,70.0,70.0,30.17,South,171,0.0,1.0,99,0.00,,,0.00,,2013-01-11 14:03:00,
2013-01-11 09:12:00,71.0,70.0,30.18,South,171,0.0,2.0,98,0.00,,,0.00,,2013-01-11 14:12:00,
2013-01-11 09:23:00,71.0,70.0,30.18,South,171,0.0,2.0,98,0.00,,,0.00,,2013-01-11 14:23:00,
2013-01-11 09:33:00,71.0,70.0,30.19,South,171,0.0,1.0,97,0.00,,,0.00,,2013-01-11 14:33:00,
2013-01-11 09:43:00,72.0,71.0,30.19,South,171,0.0,2.0,97,0.00,,,0.00,,2013-01-11 14:43:00,
2013-01-11 09:53:00,72.0,71.0,30.19,South,171,0.0,2.0,97,0.00,,,0.00,,2013-01-11 14:53:00,
2013-01-11 10:03:00,72.0,70.0,30.20,South,171,1.0,3.0,95,0.00,,,0.00,,2013-01-11 15:03:00,
2013-01-11 10:13:00,72.0,70.0,30.20,South,171,2.0,4.0,95,0.00,,,0.00,,2013-01-11 15:13:00,
2013-01-11 10:23:00,72.0,70.0,30.20,South,171,2.0,4.0,95,0.00,,,0.00,,2013-01-11 15:23:00,
2013-01-11 10:33:00,73.0,71.0,30.20,SSE,149,2.0,4.0,94,0.00,,,0.00,,2013-01-11 15:33:00,
2013-01-11 10:43:00,73.0,71.0,30.20,SSE,149,2.0,4.0,94,0.00,,,0.00,,2013-01-11 15:43:00,
2013-01-11 10:52:00,73.0,71.0,30.20,SSE,148,4.0,4.0,93,0.00,,,0.00,,2013-01-11 15:52:00,
2013-01-11 11:03:00,74.0,71.0,30.20,East,96,3.0,6.0,91,0.00,,,0.00,,2013-01-11 16:03:00,
2013-01-11 11:12:00,73.0,71.0,30.19,East,94,3.0,6.0,92,0.00,,,0.00,,2013-01-11 16:12:00,
2013-01-11 11:23:00,73.0,71.0,30.19,East,94,3.0,6.0,92,0.00,,,0.00,,2013-01-11 16:23:00,
2013-01-11 11:33:00,74.0,72.0,30.19,East,94,4.0,8.0,92,0.00,,,0.00,,2013-01-11 16:33:00,
2013-01-11 11:43:00,74.0,71.0,30.17,East,79,9.0,11.0,89,0.00,,,0.00,,2013-01-11 16:43:00,
2013-01-11 11:53:00,74.0,71.0,30.17,East,79,9.0,11.0,89,0.00,,,0.00,,2013-01-11 16:53:00,
2013-01-11 12:03:00,76.0,72.0,30.17,SE,130,3.0,10.0,86,0.00,,,0.00,,2013-01-11 17:03:00,
2013-01-11 12:12:00,76.0,71.0,30.16,East,91,2.0,10.0,85,0.00,,,0.00,,2013-01-11 17:12:00,
2013-01-11 12:22:00,76.0,71.0,30.16,East,91,2.0,10.0,85,0.00,,,0.00,,2013-01-11 17:22:00,
2013-01-11 12:33:00,77.0,71.0,30.16,South,172,4.0,11.0,82,0.00,,,0.00,,2013-01-11 17:33:00,
2013-01-11 12:43:00,77.0,71.0,30.16,South,172,4.0,11.0,82,0.00,,,0.00,,2013-01-11 17:43:00,
2013-01-11 12:53:00,78.0,72.0,30.16,SE,144,5.0,11.0,81,0.00,,,0.00,,2013-01-11 17:53:00,
2013-01-11 13:04:00,78.0,72.0,30.14,SE,144,0.0,9.0,81,0.00,,,0.00,,2013-01-11 18:04:00,
2013-01-11 13:13:00,78.0,72.0,30.14,SE,144,0.0,9.0,81,0.00,,,0.00,,2013-01-11 18:13:00,
2013-01-11 13:23:00,78.0,71.0,30.14,SSE,157,3.0,10.0,80,0.00,,,0.00,,2013-01-11 18:23:00,
2013-01-11 13:33:00,77.0,71.0,30.13,SSE,165,4.0,4.0,81,0.00,,,0.00,,2013-01-11 18:33:00,
2013-01-11 13:43:00,77.0,71.0,30.13,SSE,165,4.0,4.0,81,0.00,,,0.00,,2013-01-11 18:43:00,
2013-01-11 13:53:00,77.0,71.0,30.13,SSW,213,5.0,10.0,83,0.00,,,0.00,,2013-01-11 18:53:00,
2013-01-11 14:03:00,76.0,71.0,30.12,SSW,196,3.0,10.0,84,0.00,,,0.00,,2013-01-11 19:03:00,
2013-01-11 14:13:00,76.0,71.0,30.12,SSW,196,3.0,10.0,84,0.00,,,0.00,,2013-01-11 19:13:00,
2013-01-11 14:22:00,76.0,71.0,30.12,SSW,196,0.0,10.0,84,0.00,,,0.00,,2013-01-11 19:22:00,
2013-01-11 14:33:00,77.0,72.0,30.11,South,187,3.0,10.0,84,0.00,,,0.00,,2013-01-11 19:33:00,
2013-01-11 14:43:00,77.0,72.0,30.11,South,187,3.0,10.0,84,0.00,,,0.00,,2013-01-11 19:43:00,
2013-01-11 14:53:00,77.0,72.0,30.11,South,191,5.0,10.0,85,0.00,,,0.00,,2013-01-11 19:53:00,
2013-01-11 15:03:00,76.0,71.0,30.11,South,173,5.0,10.0,85,0.00,,,0.00,,2013-01-11 20:03:00,
2013-01-11 15:12:00,76.0,72.0,30.11,SSE,157,4.0,13.0,86,0.00,,,0.00,,2013-01-11 20:12:00,
2013-01-11 15:22:00,76.0,72.0,30.11,SSE,157,4.0,13.0,86,0.00,,,0.00,,2013-01-11 20:22:00,
2013-01-11 15:33:00,77.0,71.0,30.11,SE,146,6.0,10.0,83,0.00,,,0.00,,2013-01-11 20:33:00,
2013-01-11 15:43:00,77.0,71.0,30.11,SE,146,6.0,10.0,83,0.00,,,0.00,,2013-01-11 20:43:00,
2013-01-11 15:52:00,77.0,71.0,30.11,SE,144,6.0,10.0,82,0.00,,,0.00,,2013-01-11 20:52:00,
2013-01-11 16:03:00,77.0,71.0,30.11,SSE,159,4.0,10.0,82,0.00,,,0.00,,2013-01-11 21:03:00,
2013-01-11 16:12:00,77.0,71.0,30.11,SSE,152,3.0,10.0,82,0.00,,,0.00,,2013-01-11 21:12:00,
2013-01-11 16:23:00,77.0,71.0,30.11,SSE,152,3.0,10.0,82,0.00,,,0.00,,2013-01-11 21:23:00,
2013-01-11 16:33:00,77.0,71.0,30.11,South,173,3.0,9.0,82,0.00,,,0.00,,2013-01-11 21:33:00,
2013-01-11 16:42:00,77.0,71.0,30.11,South,173,3.0,9.0,82,0.00,,,0.00,,2013-01-11 21:42:00,
2013-01-11 16:52:00,76.0,70.0,30.11,SSE,158,3.0,9.0,83,0.00,,,0.00,,2013-01-11 21:52:00,
2013-01-11 17:03:00,75.0,70.0,30.11,South,183,0.0,8.0,85,0.00,,,0.00,,2013-01-11 22:03:00,
2013-01-11 17:12:00,75.0,71.0,30.11,SSE,167,3.0,8.0,86,0.00,,,0.00,,2013-01-11 22:12:00,
2013-01-11 17:22:00,75.0,71.0,30.11,SSE,167,3.0,8.0,86,0.00,,,0.00,,2013-01-11 22:22:00,
2013-01-11 17:33:00,74.0,70.0,30.11,SSE,150,0.0,5.0,87,0.00,,,0.00,,2013-01-11 22:33:00,
2013-01-11 17:42:00,74.0,70.0,30.11,SSE,150,0.0,5.0,87,0.00,,,0.00,,2013-01-11 22:42:00,
2013-01-11 17:52:00,74.0,70.0,30.11,SSE,153,4.0,5.0,87,0.00,,,0.00,,2013-01-11 22:52:00,
2013-01-11 18:02:00,74.0,70.0,30.11,SE,145,5.0,5.0,88,0.00,,,0.00,,2013-01-11 23:02:00,
2013-01-11 18:13:00,74.0,71.0,30.11,SE,146,0.0,5.0,89,0.00,,,0.00,,2013-01-11 23:13:00,
2013-01-11 18:23:00,74.0,71.0,30.11,SE,146,0.0,5.0,89,0.00,,,0.00,,2013-01-11 23:23:00,
2013-01-11 18:33:00,73.0,70.0,30.12,SE,146,0.0,5.0,90,0.00,,,0.00,,2013-01-11 23:33:00,
2013-01-11 18:43:00,73.0,70.0,30.12,SE,146,0.0,5.0,90,0.00,,,0.00,,2013-01-11 23:43:00,
2013-01-11 18:53:00,73.0,70.0,30.12,SE,136,1.0,5.0,90,0.00,,,0.00,,2013-01-11 23:53:00,
2013-01-11 19:03:00,73.0,70.0,30.12,SE,136,3.0,5.0,91,0.00,,,0.00,,2013-01-12 00:03:00,
2013-01-11 19:12:00,73.0,70.0,30.12,SE,136,4.0,5.0,91,0.00,,,0.00,,2013-01-12 00:12:00,
2013-01-11 19:23:00,73.0,70.0,30.12,SE,136,4.0,5.0,91,0.00,,,0.00,,2013-01-12 00:23:00,
2013-01-11 19:33:00,72.0,69.0,30.12,ESE,115,3.0,9.0,91,0.00,,,0.00,,2013-01-12 00:33:00,
2013-01-11 19:43:00,72.0,69.0,30.12,ESE,115,3.0,9.0,91,0.00,,,0.00,,2013-01-12 00:43:00,
2013-01-11 19:52:00,72.0,69.0,30.11,SE,129,4.0,9.0,91,0.00,,,0.00,,2013-01-12 00:52:00,
2013-01-11 20:03:00,72.0,69.0,30.11,ESE,107,3.0,10.0,91,0.00,,,0.00,,2013-01-12 01:03:00,
2013-01-11 20:12:00,72.0,69.0,30.12,ESE,116,7.0,10.0,91,0.00,,,0.00,,2013-01-12 01:12:00,
2013-01-11 20:22:00,72.0,69.0,30.12,ESE,116,7.0,10.0,91,0.00,,,0.00,,2013-01-12 01:22:00,
2013-01-11 20:33:00,72.0,69.0,30.11,ESE,115,8.0,10.0,91,0.00,,,0.00,,2013-01-12 01:33:00,
2013-01-11 20:43:00,72.0,69.0,30.11,ESE,115,8.0,10.0,91,0.00,,,0.00,,2013-01-12 01:43:00,
2013-01-11 20:52:00,72.0,69.0,30.11,SE,126,3.0,10.0,91,0.00,,,0.00,,2013-01-12 01:52:00,
2013-01-11 21:02:00,72.0,70.0,30.11,SE,145,4.0,8.0,92,0.00,,,0.00,,2013-01-12 02:02:00,
2013-01-11 21:12:00,72.0,70.0,30.11,SE,145,4.0,8.0,92,0.00,,,0.00,,2013-01-12 02:12:00,
2013-01-11 21:22:00,71.0,69.0,30.11,SE,134,5.0,8.0,93,0.00,,,0.00,,2013-01-12 02:22:00,
2013-01-11 21:33:00,71.0,69.0,30.11,SSE,150,6.0,8.0,93,0.00,,,0.00,,2013-01-12 02:33:00,
2013-01-11 21:43:00,71.0,69.0,30.11,SSE,150,6.0,8.0,93,0.00,,,0.00,,2013-01-12 02:43:00,
2013-01-11 21:53:00,71.0,69.0,30.11,SE,144,8.0,9.0,93,0.00,,,0.00,,2013-01-12 02:53:00,
2013-01-11 22:03:00,71.0,69.0,30.11,SE,132,3.0,6.0,94,0.00,,,0.00,,2013-01-12 03:03:00,
2013-01-11 22:12:00,71.0,69.0,30.11,SE,132,3.0,6.0,94,0.00,,,0.00,,2013-01-12 03:12:00,
2013-01-11 22:22:00,71.0,69.0,30.13,SE,132,0.0,6.0,94,0.00,,,0.00,,2013-01-12 03:22:00,
2013-01-11 22:33:00,71.0,69.0,30.13,SE,132,0.0,3.0,94,0.00,,,0.00,,2013-01-12 03:33:00,
2013-01-11 22:43:00,71.0,69.0,30.13,SE,132,0.0,3.0,94,0.00,,,0.00,,2013-01-12 03:43:00,
2013-01-11 22:52:00,71.0,69.0,30.13,SE,132,0.0,3.0,94,0.00,,,0.00,,2013-01-12 03:52:00,
2013-01-11 23:02:00,71.0,69.0,30.12,SE,132,0.0,0.0,94,0.00,,,0.00,,2013-01-12 04:02:00,
2013-01-11 23:12:00,71.0,69.0,30.12,SE,132,0.0,0.0,94,0.00,,,0.00,,2013-01-12 04:12:00,
2013-01-11 23:22:00,71.0,69.0,30.12,SE,132,0.0,0.0,94,0.00,,,0.00,,2013-01-12 04:22:00,
2013-01-11 23:32:00,70.0,68.0,30.12,SE,132,3.0,3.0,94,0.00,,,0.00,,2013-01-12 04:32:00,
2013-01-11 23:42:00,70.0,68.0,30.12,SE,132,3.0,3.0,94,0.00,,,0.00,,2013-01-12 04:42:00,
2013-01-11 23:52:00,70.0,68.0,30.12,SE,132,2.0,3.0,94,0.00,,,0.00,,2013-01-12 04:52:00,